This is the latest recevied weather packets stored in our database for station/object SQ5LTL-2. If no packets are shown the sender has not sent any weather packets the latest 10 day(s).
| Time | Temp. | Humidity | Pressure | Rain* | Wind** | Luminosity | Snow |
|---|---|---|---|---|---|---|---|
| 1778077824 | 25.56° C | 39% | 1007 hPa | 0 mm | - | 74 W/m² | - |
| 1778077524 | 26.67° C | 37% | 1006.9 hPa | 0 mm | - | 243 W/m² | - |
| 1778077221 | 26.11° C | 38% | 1006.8 hPa | 0 mm | - | 361 W/m² | - |
| 1778076920 | 25° C | 40% | 1006.8 hPa | 0 mm | - | 373 W/m² | - |
| 1778076618 | 25.56° C | 40% | 1006.9 hPa | 0 mm | - | 247 W/m² | - |
| 1778076318 | 25.56° C | 40% | 1007 hPa | 0 mm | - | 223 W/m² | - |
| 1778076015 | 25.56° C | 39% | 1006.8 hPa | 0 mm | - | 269 W/m² | - |
| 1778075734 | 25.56° C | 40% | 1006.8 hPa | 0 mm | - | 330 W/m² | - |
| 1778075433 | 25° C | 41% | 1006.8 hPa | 0 mm | - | 291 W/m² | - |
| 1778075131 | 25.56° C | 41% | 1006.8 hPa | 0 mm | - | 173 W/m² | - |
| 1778074830 | 26.11° C | 41% | 1006.7 hPa | 0 mm | - | 190 W/m² | - |
| 1778074529 | 26.11° C | 40% | 1006.7 hPa | 0 mm | - | 365 W/m² | - |
| 1778074226 | 26.11° C | 40% | 1006.7 hPa | 0 mm | - | 340 W/m² | - |
| 1778073925 | 25.56° C | 41% | 1006.7 hPa | 0 mm | - | 461 W/m² | - |
| 1778073624 | 25.56° C | 41% | 1006.7 hPa | 0 mm | - | 438 W/m² | - |
| 1778073322 | 25.56° C | 41% | 1006.7 hPa | 0 mm | - | 464 W/m² | - |
| 1778073021 | 25° C | 43% | 1006.7 hPa | 0 mm | - | 332 W/m² | - |
| 1778072719 | 25.56° C | 42% | 1006.8 hPa | 0 mm | - | 259 W/m² | - |
| 1778072418 | 25.56° C | 42% | 1006.8 hPa | 0 mm | - | 424 W/m² | - |
| 1778072116 | 25.56° C | 41% | 1006.9 hPa | 0 mm | - | 385 W/m² | - |
| 1778071835 | 25.56° C | 41% | 1006.8 hPa | 0 mm | - | 254 W/m² | - |
| 1778071535 | 25.56° C | 41% | 1006.8 hPa | 0 mm | - | 482 W/m² | - |
| 1778071233 | 26.11° C | 40% | 1006.8 hPa | 0 mm | - | 406 W/m² | - |
| 1778070931 | 26.11° C | 40% | 1006.8 hPa | 0 mm | - | 542 W/m² | - |
| 1778070629 | 25° C | 42% | 1006.9 hPa | 0 mm | - | 371 W/m² | - |
* Rain latest hour (hover to see other rain measurements)
** Current wind speed in m/s (hover to see current wind gust speed)